JQ1YUX-13 Tokyo Ota-ku JP current weather conditions

sailwx.info

Wind from 219

Air temperature 18.9° C
Dewpoint 13.1° C

Last reported at 2016-May-06 17:42 UTC.
Time now 2016-May-06 18:49 UTC

Location: N 35°35' E 139°40'.
View on Google Maps.

See reports from other nearby stations

  
Tides and Currents Weather Stations Pressure Air Temp Water Temp Dewpoint Dewpoint Depression Visibility Wind Speed Wind Dir Waves Ship Positions
date/time (UTC)wind fromknots sea level pressurealtimeterstation pressurevisibilityair tempwater tempwave heightnotes
2016-May-06 17:42 219 18.9
2016-May-06 17:19 232 18.9
2016-May-06 17:12 236 18.9
2016-May-06 16:49 200 18.9
2016-May-06 16:42 250 18.9
2016-May-06 16:19 222 18.9
2016-May-06 16:12 215 18.3
2016-May-06 15:49 217 17.8
2016-May-06 15:42 198 17.8
2016-May-06 15:19 206 17.8
2016-May-06 15:12 206 17.2
2016-May-06 14:49 231 16.7
2016-May-06 14:42 207 16.7
2016-May-06 14:19 186 16.1
2016-May-06 14:12 185 16.1
2016-May-06 13:49 165 16.1
2016-May-06 13:42 207 16.7
2016-May-06 13:19 198 16.7
2016-May-06 13:12 200 16.7
2016-May-06 12:49 183 16.7
2016-May-06 12:42 196 16.7
2016-May-06 12:19 183 16.7
2016-May-06 12:12 242 16.7
2016-May-06 11:49 199 16.7
2016-May-06 11:42 198 17.2
2016-May-06 11:19 218 17.2
2016-May-06 11:12 184 17.2
2016-May-06 10:49 216 17.8
2016-May-06 10:42 224 17.8
2016-May-06 10:19 190 18.3
2016-May-06 10:12 196 18.3
2016-May-06 09:49 205 18.3
2016-May-06 09:42 184 18.3
2016-May-06 09:19 161 18.3
2016-May-06 09:12 184 18.3
2016-May-06 08:49 157 18.3
2016-May-06 08:42 145 18.9
2016-May-06 08:19 190 18.9
2016-May-06 08:12 211 18.9
2016-May-06 07:49 179 19.4
2016-May-06 07:42 194 19.4
2016-May-06 07:19 182 20.0
2016-May-06 07:12 192 20.0
2016-May-06 06:49 188 20.0
2016-May-06 06:42 182 20.0
2016-May-06 06:19 184 20.6
2016-May-06 06:12 168 20.6
2016-May-06 05:49 176 21.1
2016-May-06 05:42 151 21.1
2016-May-06 05:19 191 21.1
2016-May-06 05:12 162 21.1
2016-May-06 04:49 281 21.7
2016-May-06 04:42 249 21.7
2016-May-06 04:19 028 22.2
2016-May-06 04:12 028 22.2
2016-May-06 03:49 178 22.2
2016-May-06 03:42 178 21.7
2016-May-06 03:19 034 22.2
2016-May-06 03:12 034 22.2
2016-May-06 02:49 190 21.7
2016-May-06 02:42 190 21.7
2016-May-06 02:19 193 21.7
2016-May-06 02:12 063 22.2
2016-May-06 01:49 186 21.7
2016-May-06 01:42 186 21.7
2016-May-06 01:19 192 21.7
2016-May-06 01:12 304 21.7
2016-May-06 00:49 195 21.1
2016-May-06 00:42 026 21.1
2016-May-06 00:19 029 20.6
2016-May-06 00:12 313 20.6
2016-May-05 23:49 315 20.0
2016-May-05 23:42 315 20.0
2016-May-05 23:19 316 19.4
2016-May-05 23:12 315 19.4
2016-May-05 22:49 313 18.9
2016-May-05 22:42 311 18.9
2016-May-05 22:19 347 18.9
2016-May-05 22:12 347 18.9
2016-May-05 21:49 348 18.3
2016-May-05 21:42 019 17.8
2016-May-05 21:19 325 17.2
2016-May-05 21:12 325 17.2
2016-May-05 20:49 324 17.2
2016-May-05 20:42 355 17.2
2016-May-05 20:19 355 17.2
2016-May-05 20:12 342 17.2
2016-May-05 19:49 339 17.2
2016-May-05 19:42 010 17.2
2016-May-05 19:19 17.2
2016-May-05 19:12 340 17.2
2016-May-05 18:49 342 17.2
2016-May-05 18:42 342 17.2
2016-May-05 18:19 343 17.2
2016-May-05 18:12 342 17.2
2016-May-05 17:49 342 17.8
2016-May-05 17:42 342 17.8
2016-May-05 17:19 321 17.8
2016-May-05 17:12 337 17.8
2016-May-05 16:49 333 18.3
2016-May-05 16:42 338 18.3
2016-May-05 16:19 336 18.3
2016-May-05 16:12 334 18.3
2016-May-05 15:49 349 18.9
2016-May-05 15:42 349 18.9
2016-May-05 15:19 333 18.9
2016-May-05 15:12 333 18.9
2016-May-05 14:49 323 18.9
2016-May-05 14:42 324 18.9
2016-May-05 14:19 323 19.4
2016-May-05 14:12 323 19.4
2016-May-05 13:49 311 20.0
2016-May-05 13:42 295 20.0
2016-May-05 13:19 330 20.6
2016-May-05 13:12 321 20.6
2016-May-05 12:49 326 21.1
2016-May-05 12:42 355 21.1
2016-May-05 12:19 343 21.7
2016-May-05 12:12 318 21.7
2016-May-05 11:49 013 22.2
2016-May-05 11:42 350 22.2
2016-May-05 11:19 322 22.2
2016-May-05 11:12 275 22.2
2016-May-05 10:42 275 22.8
2016-May-05 10:12 225 23.3
2016-May-05 09:42 225 23.9
2016-May-05 09:12 192 24.4
2016-May-05 08:42 175 25.0
2016-May-05 08:12 184 25.6
2016-May-05 07:42 148 25.6
2016-May-05 07:12 119 26.1
2016-May-05 06:42 182 26.1
2016-May-05 06:12 207 27.2
2016-May-05 05:42 197 27.2
2016-May-05 05:12 187 27.2
2016-May-05 04:42 227 26.7
2016-May-05 04:12 186 26.7
2016-May-05 03:42 221 26.7
2016-May-05 03:12 27.2
2016-May-05 02:42 175 25.6
2016-May-05 02:12 183 26.1
2016-May-05 01:42 250 25.6
2016-May-05 01:12 266 25.0
2016-May-05 00:42 298 24.4
2016-May-05 00:12 258 23.3
2016-May-04 23:42 157 22.8
2016-May-04 23:12 200 21.7
2016-May-04 22:42 203 21.1
2016-May-04 22:12 196 20.6
2016-May-04 21:42 217 20.0
2016-May-04 21:12 252 18.9
2016-May-04 20:42 209 18.9
2016-May-04 20:12 149 18.3
2016-May-04 19:42 211 18.3
2016-May-04 19:12 227 18.9
2016-May-04 18:42 213 18.9
2016-May-04 18:12 207 18.9